Starlink 5174

operational
NORAD ID: 54067 Int'l Des: 2022-136 Owner: SPXS Country: US Constellation: starlink
LEOCIRCULAR

Über Starlink 5174

Beschreibung wird geladen...

Live-Position

3D-Globus wird geladen...

Nächste Überflüge

Höhenverlauf

Altitude vs Time

uPlot chart will show altitude changes over time

Zweizeiliger Elementsatz

1 54067U 22136S 25303.90207514 .00001314 00000-0 10069-3 0 9995
2 54067 53.2195 206.5401 0001516 109.6979 250.4177 15.08828573167255
Epoch: 30. Okt. 2025 • Age: 10 hours

Aktueller Status

Höhe 542.0 km
Geschwindigkeit 7.60 km/s
Subsatellitenpunkt 38.20°N, 167.43°W
Startdatum 20. Okt. 2022
Alter 3 years
Typ internet

Technische Details

Klassifizierung Payload
Masse 305.00 kg
Trockenmasse 290.00 kg
Gesamtmasse 305.00 kg
Länge 0.20 m
Durchmesser 2.80 m
Spannweite 9.00 m
Form Box + pan
Hersteller SPXS
Bus-Typ Starlink
Phasenstatus In Orbit
Besitzer/Staat SPXS/US

Große Konstellationen

Loading constellations...